| time (UTC) | temp F | wind direction | speed MPH | gust MPH | rain 1hr in | rain 24hr in | rain mn in | humidity % | barometer mb |
| 20260502211051 | 75 | 292 | 1.0 | 8.0 | 0.00 | 0.00 | 0.00 | 38 | 1016.7 |
| 20260502210052 | 75 | 333 | 0.0 | 10.0 | 0.00 | 0.00 | 0.00 | 41 | 1016.7 |
| 20260502205052 | 75 | 132 | 2.0 | 5.0 | 0.00 | 0.00 | 0.00 | 38 | 1016.8 |
| 20260502202052 | 74 | 110 | 7.0 | 7.0 | 0.00 | 0.00 | 0.00 | 41 | 1017.1 |
| 20260502201052 | 75 | 314 | 2.0 | 10.0 | 0.00 | 0.00 | 0.00 | 39 | 1017.3 |
| 20260502200052 | 75 | 37 | 3.0 | 7.0 | 0.00 | 0.00 | 0.00 | 41 | 1017.4 |
| 20260502195052 | 76 | 269 | 4.0 | 8.0 | 0.00 | 0.00 | 0.00 | 40 | 1017.6 |
| 20260502194052 | 75 | 287 | 2.0 | 10.0 | 0.00 | 0.00 | 0.00 | 40 | 1017.7 |
| 20260502193052 | 75 | 296 | 4.0 | 7.0 | 0.00 | 0.00 | 0.00 | 37 | 1017.8 |
| 20260502192052 | 74 | 292 | 2.0 | 10.0 | 0.00 | 0.00 | 0.00 | 39 | 1018.1 |
| 20260502190052 | 74 | 130 | 5.0 | 9.0 | 0.00 | 0.00 | 0.00 | 41 | 1018.2 |
| 20260502185052 | 74 | 281 | 4.0 | 11.0 | 0.00 | 0.00 | 0.00 | 39 | 1018.4 |
| 20260502184053 | 73 | 278 | 2.0 | 9.0 | 0.00 | 0.00 | 0.00 | 42 | 1018.3 |
| 20260502182052 | 73 | 248 | 2.0 | 9.0 | 0.00 | 0.00 | 0.00 | 39 | 1018.6 |
| 20260502181052 | 72 | 288 | 2.0 | 6.0 | 0.00 | 0.00 | 0.00 | 45 | 1018.7 |
| 20260502164052 | 71 | 74 | 3.0 | 10.0 | 0.00 | 0.00 | 0.00 | 44 | 1019.3 |
| 20260502163052 | 71 | 76 | 3.0 | 8.0 | 0.00 | 0.00 | 0.00 | 41 | 1019.3 |
| 20260502162052 | 71 | 115 | 1.0 | 6.0 | 0.00 | 0.00 | 0.00 | 45 | 1019.2 |
| 20260502161052 | 70 | 46 | 6.0 | 8.0 | 0.00 | 0.00 | 0.00 | 45 | 1019.3 |
| 20260502152053 | 68 | 334 | 1.0 | 6.0 | 0.00 | 0.00 | 0.00 | 54 | 1019.1 |
| 20260502151052 | 67 | 68 | 2.0 | 6.0 | 0.00 | 0.00 | 0.00 | 56 | 1019.2 |
| 20260502123052 | 49 | 216 | 0.0 | 0.0 | 0.00 | 0.00 | 0.00 | 93 | 1017.9 |
| 20260502121052 | 47 | 216 | 0.0 | 0.0 | 0.00 | 0.00 | 0.00 | 93 | 1017.4 |
| 20260502115053 | 46 | 220 | 0.0 | 0.0 | 0.00 | 0.00 | 0.00 | 92 | 1017.0 |
| 20260502113053 | 47 | 220 | 0.0 | 0.0 | 0.00 | 0.00 | 0.00 | 92 | 1016.8 |
| 20260502112052 | 47 | 220 | 0.0 | 0.0 | 0.00 | 0.00 | 0.00 | 92 | 1016.8 |
| 20260502111053 | 47 | 220 | 0.0 | 0.0 | 0.00 | 0.00 | 0.00 | 92 | 1016.8 |
| 20260502110053 | 47 | 220 | 0.0 | 0.0 | 0.00 | 0.00 | 0.00 | 92 | 1016.7 |
| 20260502105052 | 48 | 220 | 0.0 | 0.0 | 0.00 | 0.00 | 0.00 | 91 | 1016.6 |
| 20260502104053 | 48 | 220 | 0.0 | 0.0 | 0.00 | 0.00 | 0.00 | 92 | 1016.5 |
| 20260502103053 | 49 | 220 | 0.0 | 0.0 | 0.00 | 0.00 | 0.00 | 92 | 1016.4 |
| 20260502102053 | 49 | 220 | 0.0 | 0.0 | 0.00 | 0.00 | 0.00 | 92 | 1016.4 |
| 20260502101053 | 49 | 220 | 0.0 | 0.0 | 0.00 | 0.00 | 0.00 | 92 | 1016.3 |
| 20260502091053 | 50 | 220 | 0.0 | 0.0 | 0.00 | 0.00 | 0.00 | 92 | 1015.9 |
| 20260502071053 | 53 | 220 | 0.0 | 0.0 | 0.00 | 0.00 | 0.00 | 91 | 1016.0 |
| 20260502070053 | 54 | 220 | 0.0 | 0.0 | 0.00 | 0.00 | 0.00 | 91 | 1016.0 |
| 20260502065053 | 54 | 220 | 0.0 | 0.0 | 0.00 | 0.01 | 0.00 | 91 | 1016.0 |
| 20260502063053 | 55 | 220 | 0.0 | 1.0 | 0.00 | 0.01 | 0.00 | 91 | 1016.1 |
| 20260502061053 | 55 | 220 | 0.0 | 0.0 | 0.00 | 0.01 | 0.00 | 91 | 1016.0 |
| 20260502060053 | 55 | 220 | 0.0 | 1.0 | 0.00 | 0.01 | 0.00 | 91 | 1016.0 |
| 20260502055053 | 56 | 220 | 0.0 | 0.0 | 0.00 | 0.01 | 0.00 | 91 | 1016.0 |
| 20260502054053 | 56 | 220 | 0.0 | 0.0 | 0.00 | 0.01 | 0.00 | 91 | 1015.9 |
| 20260502052053 | 56 | 220 | 0.0 | 0.0 | 0.00 | 0.01 | 0.00 | 91 | 1016.0 |
| 20260502051053 | 56 | 220 | 0.0 | 0.0 | 0.00 | 0.01 | 0.00 | 90 | 1016.0 |
| 20260502050053 | 57 | 220 | 0.0 | 0.0 | 0.00 | 0.01 | 0.00 | 90 | 1016.0 |
| 20260502045053 | 57 | 220 | 0.0 | 0.0 | 0.00 | 0.01 | 0.01 | 90 | 1015.9 |
| 20260502044053 | 57 | 220 | 0.0 | 0.0 | 0.00 | 0.01 | 0.01 | 90 | 1015.8 |
| 20260502043054 | 57 | 220 | 0.0 | 1.0 | 0.00 | 0.01 | 0.01 | 90 | 1015.7 |
| 20260502042054 | 57 | 220 | 0.0 | 0.0 | 0.00 | 0.01 | 0.01 | 90 | 1015.6 |
| 20260502041053 | 58 | 220 | 0.0 | 0.0 | 0.00 | 0.01 | 0.01 | 90 | 1015.8 |
| 20260502035053 | 58 | 220 | 0.0 | 0.0 | 0.00 | 0.02 | 0.01 | 89 | 1015.9 |
| 20260502034053 | 58 | 220 | 0.0 | 0.0 | 0.00 | 0.02 | 0.01 | 89 | 1016.0 |
| 20260502033054 | 58 | 220 | 0.0 | 1.0 | 0.00 | 0.03 | 0.01 | 89 | 1016.0 |
| 20260502032053 | 58 | 220 | 0.0 | 2.0 | 0.00 | 0.06 | 0.01 | 89 | 1015.9 |
| 20260502030053 | 59 | 220 | 0.0 | 0.0 | 0.00 | 0.08 | 0.01 | 89 | 1015.8 |
| 20260502025053 | 59 | 220 | 0.0 | 0.0 | 0.00 | 0.08 | 0.01 | 89 | 1015.7 |
| 20260502024053 | 59 | 220 | 0.0 | 0.0 | 0.00 | 0.08 | 0.01 | 89 | 1015.6 |
| 20260502023053 | 60 | 220 | 0.0 | 0.0 | 0.00 | 0.08 | 0.01 | 89 | 1015.4 |
| 20260502022054 | 60 | 220 | 0.0 | 0.0 | 0.00 | 0.08 | 0.01 | 90 | 1015.3 |
| 20260502020054 | 60 | 220 | 0.0 | 0.0 | 0.00 | 0.08 | 0.01 | 89 | 1014.9 |
| 20260502015054 | 60 | 220 | 0.0 | 0.0 | 0.00 | 0.08 | 0.01 | 89 | 1014.7 |
| 20260502014054 | 60 | 220 | 0.0 | 0.0 | 0.00 | 0.08 | 0.01 | 89 | 1014.7 |
| 20260502013054 | 61 | 220 | 0.0 | 0.0 | 0.00 | 0.08 | 0.01 | 88 | 1014.5 |
| 20260502011054 | 61 | 220 | 0.0 | 0.0 | 0.00 | 0.08 | 0.01 | 87 | 1014.0 |
| 20260502010054 | 62 | 220 | 0.0 | 0.0 | 0.00 | 0.08 | 0.01 | 86 | 1014.0 |
| 20260502004054 | 62 | 233 | 0.0 | 0.0 | 0.00 | 0.08 | 0.01 | 85 | 1013.7 |
| 20260502003054 | 63 | 233 | 0.0 | 0.0 | 0.00 | 0.08 | 0.01 | 83 | 1013.9 |
| 20260502002054 | 63 | 233 | 0.0 | 0.0 | 0.00 | 0.08 | 0.01 | 83 | 1013.8 |
| 20260502001054 | 64 | 233 | 0.0 | 0.0 | 0.00 | 0.08 | 0.01 | 83 | 1013.6 |
| 20260502000054 | 65 | 113 | 0.0 | 0.0 | 0.00 | 0.08 | 0.01 | 81 | 1013.6 |
| 20260501235054 | 65 | 113 | 0.0 | 0.0 | 0.00 | 0.08 | 0.01 | 80 | 1013.4 |
| 20260501233054 | 66 | 113 | 0.0 | 0.0 | 0.00 | 0.08 | 0.01 | 77 | 1013.2 |
| 20260501232054 | 66 | 115 | 0.0 | 1.0 | 0.00 | 0.08 | 0.01 | 75 | 1012.9 |
| 20260501230054 | 66 | 66 | 0.0 | 2.0 | 0.00 | 0.08 | 0.01 | 73 | 1012.7 |
| 20260501225054 | 66 | 66 | 0.0 | 2.0 | 0.00 | 0.08 | 0.01 | 74 | 1012.6 |
| 20260501224054 | 67 | 66 | 0.0 | 2.0 | 0.00 | 0.08 | 0.01 | 74 | 1012.0 |
| 20260501223054 | 67 | 66 | 1.0 | 2.0 | 0.00 | 0.08 | 0.01 | 69 | 1011.9 |
| 20260501222054 | 67 | 66 | 0.0 | 4.0 | 0.00 | 0.08 | 0.01 | 66 | 1011.9 |
| 20260501221054 | 68 | 92 | 0.0 | 5.0 | 0.00 | 0.08 | 0.01 | 67 | 1012.1 |
| 20260501215054 | 68 | 107 | 3.0 | 4.0 | 0.00 | 0.08 | 0.01 | 63 | 1012.2 |
| 20260501214054 | 68 | 57 | 3.0 | 6.0 | 0.00 | 0.08 | 0.01 | 60 | 1012.2 |
| 20260501213054 | 67 | 83 | 2.0 | 6.0 | 0.00 | 0.08 | 0.01 | 60 | 1012.6 |
| 20260501212054 | 68 | 84 | 3.0 | 7.0 | 0.00 | 0.08 | 0.01 | 61 | 1012.5 |